This is the latest recevied weather packets stored in our database for station/object KQ4WWD. If no packets are shown the sender has not sent any weather packets the latest 10 day(s).
| Time | Temp. | Humidity | Pressure | Rain* | Wind** | Luminosity | Snow |
|---|---|---|---|---|---|---|---|
| 1777562976 | 28.89° C | 63% | 1011.9 hPa | 0 mm | - | 545 W/m² | - |
| 1777562672 | 28.89° C | 64% | 1011.7 hPa | 0 mm | - | 796 W/m² | - |
| 1777562371 | 28.33° C | 63% | 1011.8 hPa | 0 mm | - | 814 W/m² | - |
| 1777562067 | 28.33° C | 64% | 1011.9 hPa | 0 mm | - | 766 W/m² | - |
| 1777561765 | 28.89° C | 64% | 1012 hPa | 0 mm | - | 414 W/m² | - |
| 1777561460 | 28.33° C | 66% | 1012.1 hPa | 0 mm | - | 822 W/m² | - |
| 1777561155 | 28.33° C | 66% | 1011.6 hPa | 0 mm | - | 752 W/m² | - |
| 1777560850 | 27.78° C | 69% | 1011.5 hPa | 0 mm | - | 308 W/m² | - |
| 1777560548 | 27.78° C | 69% | 1011.6 hPa | 0 mm | - | 685 W/m² | - |
| 1777560246 | 27.22° C | 71% | 1011.9 hPa | 0 mm | - | 430 W/m² | - |
| 1777559943 | 27.78° C | 70% | 1011.7 hPa | 0 mm | - | 823 W/m² | - |
| 1777559637 | 27.78° C | 71% | 1011.7 hPa | 0 mm | - | 675 W/m² | - |
| 1777559336 | 26.67° C | 73% | 1011.7 hPa | 0 mm | - | 576 W/m² | - |
| 1777559031 | 26.67° C | 73% | 1011.6 hPa | 0 mm | - | 583 W/m² | - |
| 1777558727 | 26.67° C | 72% | 1011.8 hPa | 0 mm | - | 548 W/m² | - |
| 1777558423 | 26.11° C | 74% | 1011.7 hPa | 0 mm | - | 592 W/m² | - |
| 1777558119 | 26.11° C | 76% | 1011.4 hPa | 0 mm | - | 554 W/m² | - |
| 1777557816 | 26.11° C | 77% | 1011.8 hPa | 0 mm | - | 545 W/m² | - |
| 1777557513 | 26.11° C | 78% | 1011.7 hPa | 0 mm | - | 534 W/m² | - |
| 1777557209 | 25.56° C | 80% | 1011.8 hPa | 0 mm | - | 534 W/m² | - |
| 1777556905 | 25.56° C | 80% | 1011.6 hPa | 0 mm | - | 418 W/m² | - |
| 1777556601 | 25° C | 81% | 1011.4 hPa | 0 mm | - | 559 W/m² | - |
| 1777556301 | 25° C | 81% | 1011.4 hPa | 0 mm | - | 265 W/m² | - |
| 1777555997 | 25.56° C | 80% | 1011.5 hPa | 0 mm | - | 263 W/m² | - |
| 1777555692 | 25° C | 81% | 1011.5 hPa | 0 mm | - | 271 W/m² | - |
* Rain latest hour (hover to see other rain measurements)
** Current wind speed in m/s (hover to see current wind gust speed)